Time,TemperatureF,DewpointF,PressureIn,WindDirection,WindDirectionDegrees,WindSpeedMPH,WindSpeedGustMPH,Humidity,HourlyPrecipIn,Conditions,Clouds,dailyrainin,SoftwareType,DateUTC
2013-05-28 00:03:00,65.0,44.0,-100.00,WNW,297,1.0,-999.0,45,-99.99,,,-99.99,,2013-05-28 04:03:00,
2013-05-28 00:13:00,65.0,44.0,-100.00,WNW,297,1.0,-999.0,45,-99.99,,,-99.99,,2013-05-28 04:13:00,
2013-05-28 00:22:00,66.0,44.0,-100.00,South,190,1.0,-999.0,45,-99.99,,,-99.99,,2013-05-28 04:22:00,
2013-05-28 00:33:00,66.0,44.0,-100.00,East,99,3.0,-999.0,46,-99.99,,,-99.99,,2013-05-28 04:33:00,
2013-05-28 00:43:00,66.0,44.0,-100.00,East,99,3.0,-999.0,46,-99.99,,,-99.99,,2013-05-28 04:43:00,
2013-05-28 00:53:00,65.0,45.0,-100.00,ENE,70,3.0,-999.0,47,-99.99,,,-99.99,,2013-05-28 04:53:00,
2013-05-28 01:02:00,65.0,45.0,-100.00,ESE,111,3.0,-999.0,48,-99.99,,,-99.99,,2013-05-28 05:02:00,
2013-05-28 01:12:00,65.0,45.0,-100.00,ESE,111,3.0,-999.0,48,-99.99,,,-99.99,,2013-05-28 05:12:00,
2013-05-28 01:22:00,65.0,45.0,-100.00,ESE,109,3.0,-999.0,48,-99.99,,,-99.99,,2013-05-28 05:22:00,
2013-05-28 01:33:00,65.0,45.0,-100.00,East,88,2.0,-999.0,48,-99.99,,,-99.99,,2013-05-28 05:33:00,
2013-05-28 01:42:00,65.0,45.0,-100.00,East,88,2.0,-999.0,48,-99.99,,,-99.99,,2013-05-28 05:42:00,
2013-05-28 01:52:00,65.0,45.0,-100.00,East,89,2.0,-999.0,47,-99.99,,,-99.99,,2013-05-28 05:52:00,
2013-05-28 02:02:00,65.0,44.0,-100.00,ESE,113,3.0,-999.0,46,-99.99,,,-99.99,,2013-05-28 06:02:00,
2013-05-28 02:12:00,65.0,44.0,-100.00,ESE,113,3.0,-999.0,46,-99.99,,,-99.99,,2013-05-28 06:12:00,
2013-05-28 02:22:00,65.0,45.0,-100.00,ESE,110,3.0,-999.0,47,-99.99,,,-99.99,,2013-05-28 06:22:00,
2013-05-28 02:32:00,65.0,44.0,-100.00,ESE,103,3.0,-999.0,46,-99.99,,,-99.99,,2013-05-28 06:32:00,
2013-05-28 02:42:00,65.0,44.0,-100.00,ESE,103,3.0,-999.0,46,-99.99,,,-99.99,,2013-05-28 06:42:00,
2013-05-28 02:52:00,65.0,45.0,-100.00,ENE,72,3.0,-999.0,48,-99.99,,,-99.99,,2013-05-28 06:52:00,
2013-05-28 03:02:00,65.0,46.0,-100.00,East,96,2.0,-999.0,50,-99.99,,,-99.99,,2013-05-28 07:02:00,
2013-05-28 03:11:00,65.0,46.0,-100.00,East,96,2.0,-999.0,50,-99.99,,,-99.99,,2013-05-28 07:11:00,
2013-05-28 03:22:00,65.0,46.0,-100.00,East,100,3.0,-999.0,50,-99.99,,,-99.99,,2013-05-28 07:22:00,
2013-05-28 03:32:00,64.0,47.0,-100.00,ENE,78,4.0,-999.0,53,-99.99,,,-99.99,,2013-05-28 07:32:00,
2013-05-28 03:42:00,64.0,47.0,-100.00,ENE,78,4.0,-999.0,53,-99.99,,,-99.99,,2013-05-28 07:42:00,
2013-05-28 03:52:00,64.0,48.0,-100.00,East,79,4.0,-999.0,55,-99.99,,,-99.99,,2013-05-28 07:52:00,
2013-05-28 04:02:00,63.0,48.0,-100.00,East,83,4.0,-999.0,56,-99.99,,,-99.99,,2013-05-28 08:02:00,
2013-05-28 04:12:00,63.0,48.0,-100.00,East,83,4.0,-999.0,56,-99.99,,,-99.99,,2013-05-28 08:12:00,
2013-05-28 04:22:00,63.0,48.0,-100.00,ENE,69,3.0,-999.0,57,-99.99,,,-99.99,,2013-05-28 08:22:00,
2013-05-28 04:32:00,63.0,48.0,-100.00,East,89,2.0,-999.0,57,-99.99,,,-99.99,,2013-05-28 08:32:00,
2013-05-28 04:42:00,63.0,48.0,-100.00,East,89,2.0,-999.0,57,-99.99,,,-99.99,,2013-05-28 08:42:00,
2013-05-28 04:52:00,63.0,49.0,-100.00,ESE,107,2.0,-999.0,58,-99.99,,,-99.99,,2013-05-28 08:52:00,
2013-05-28 05:01:00,63.0,49.0,-100.00,ESE,108,2.0,-999.0,58,-99.99,,,-99.99,,2013-05-28 09:01:00,
2013-05-28 05:11:00,63.0,49.0,-100.00,ESE,108,2.0,-999.0,58,-99.99,,,-99.99,,2013-05-28 09:11:00,
2013-05-28 05:21:00,63.0,49.0,-100.00,ESE,112,2.0,-999.0,59,-99.99,,,-99.99,,2013-05-28 09:21:00,
2013-05-28 05:33:00,63.0,50.0,-100.00,NNE,14,3.0,-999.0,62,-99.99,,,-99.99,,2013-05-28 09:33:00,
2013-05-28 05:43:00,63.0,50.0,-100.00,NNE,14,3.0,-999.0,62,-99.99,,,-99.99,,2013-05-28 09:43:00,
2013-05-28 05:54:00,62.0,51.0,-100.00,NE,55,3.0,-999.0,65,-99.99,,,-99.99,,2013-05-28 09:54:00,
2013-05-28 06:03:00,62.0,51.0,-100.00,ENE,60,5.0,-999.0,66,-99.99,,,-99.99,,2013-05-28 10:03:00,
2013-05-28 06:12:00,62.0,51.0,-100.00,ENE,60,5.0,-999.0,66,-99.99,,,-99.99,,2013-05-28 10:12:00,
2013-05-28 06:23:00,62.0,52.0,-100.00,ENE,78,4.0,-999.0,68,-99.99,,,-99.99,,2013-05-28 10:23:00,
2013-05-28 06:32:00,62.0,52.0,-100.00,East,80,6.0,-999.0,69,-99.99,,,-99.99,,2013-05-28 10:32:00,
2013-05-28 06:43:00,62.0,52.0,-100.00,East,80,6.0,-999.0,69,-99.99,,,-99.99,,2013-05-28 10:43:00,
2013-05-28 06:53:00,61.0,52.0,-100.00,East,79,5.0,-999.0,71,-99.99,,,-99.99,,2013-05-28 10:53:00,
2013-05-28 07:02:00,62.0,53.0,-100.00,East,93,4.0,-999.0,72,-99.99,,,-99.99,,2013-05-28 11:02:00,
2013-05-28 07:11:00,62.0,53.0,-100.00,East,93,4.0,-999.0,72,-99.99,,,-99.99,,2013-05-28 11:11:00,
2013-05-28 07:22:00,62.0,53.0,-100.00,ESE,106,4.0,-999.0,72,-99.99,,,-99.99,,2013-05-28 11:22:00,
2013-05-28 07:32:00,63.0,54.0,-100.00,SE,127,3.0,-999.0,72,-99.99,,,-99.99,,2013-05-28 11:32:00,
2013-05-28 07:42:00,63.0,54.0,-100.00,SE,127,3.0,-999.0,72,-99.99,,,-99.99,,2013-05-28 11:42:00,
2013-05-28 07:52:00,63.0,54.0,-100.00,South,171,6.0,-999.0,73,-99.99,,,-99.99,,2013-05-28 11:52:00,
2013-05-28 08:02:00,63.0,55.0,-100.00,SSW,192,7.0,-999.0,74,-99.99,,,-99.99,,2013-05-28 12:02:00,
2013-05-28 08:11:00,63.0,55.0,-100.00,SSW,192,7.0,-999.0,74,-99.99,,,-99.99,,2013-05-28 12:11:00,
2013-05-28 08:22:00,63.0,54.0,-100.00,South,187,9.0,-999.0,74,-99.99,,,-99.99,,2013-05-28 12:22:00,
2013-05-28 08:32:00,62.0,54.0,-100.00,SSW,196,7.0,-999.0,74,-99.99,,,-99.99,,2013-05-28 12:32:00,
2013-05-28 08:42:00,62.0,54.0,-100.00,SSW,196,7.0,-999.0,74,-99.99,,,-99.99,,2013-05-28 12:42:00,
2013-05-28 08:52:00,62.0,54.0,-100.00,South,186,9.0,-999.0,74,-99.99,,,-99.99,,2013-05-28 12:52:00,
2013-05-28 09:01:00,62.0,55.0,-100.00,South,189,8.0,-999.0,75,-99.99,,,-99.99,,2013-05-28 13:01:00,
2013-05-28 09:11:00,62.0,55.0,-100.00,South,189,8.0,-999.0,75,-99.99,,,-99.99,,2013-05-28 13:11:00,
2013-05-28 09:21:00,62.0,55.0,-100.00,SSW,198,9.0,-999.0,76,-99.99,,,-99.99,,2013-05-28 13:21:00,
2013-05-28 09:32:00,63.0,55.0,-100.00,SW,219,8.0,-999.0,76,-99.99,,,-99.99,,2013-05-28 13:32:00,
2013-05-28 09:42:00,63.0,55.0,-100.00,SW,219,8.0,-999.0,76,-99.99,,,-99.99,,2013-05-28 13:42:00,
2013-05-28 09:52:00,63.0,55.0,-100.00,SSW,212,6.0,-999.0,75,-99.99,,,-99.99,,2013-05-28 13:52:00,
2013-05-28 10:02:00,63.0,55.0,-100.00,SW,216,5.0,-999.0,74,-99.99,,,-99.99,,2013-05-28 14:02:00,
2013-05-28 10:12:00,63.0,55.0,-100.00,SW,216,5.0,-999.0,74,-99.99,,,-99.99,,2013-05-28 14:12:00,
2013-05-28 10:21:00,63.0,55.0,-100.00,South,182,6.0,-999.0,73,-99.99,,,-99.99,,2013-05-28 14:21:00,
2013-05-28 10:32:00,63.0,55.0,-100.00,SSW,199,7.0,-999.0,73,-99.99,,,-99.99,,2013-05-28 14:32:00,
2013-05-28 10:42:00,63.0,55.0,-100.00,SSW,199,7.0,-999.0,73,-99.99,,,-99.99,,2013-05-28 14:42:00,
2013-05-28 10:52:00,64.0,55.0,-100.00,SSW,196,5.0,-999.0,70,-99.99,,,-99.99,,2013-05-28 14:52:00,
2013-05-28 11:01:00,65.0,55.0,-100.00,West,260,3.0,-999.0,68,-99.99,,,-99.99,,2013-05-28 15:01:00,
2013-05-28 11:11:00,65.0,55.0,-100.00,West,260,3.0,-999.0,68,-99.99,,,-99.99,,2013-05-28 15:11:00,
2013-05-28 11:21:00,67.0,55.0,-100.00,SW,225,4.0,-999.0,64,-99.99,,,-99.99,,2013-05-28 15:21:00,
2013-05-28 11:33:00,67.0,54.0,-100.00,SW,232,4.0,-999.0,62,-99.99,,,-99.99,,2013-05-28 15:33:00,
2013-05-28 11:43:00,67.0,54.0,-100.00,SW,232,4.0,-999.0,62,-99.99,,,-99.99,,2013-05-28 15:43:00,
2013-05-28 11:53:00,68.0,54.0,-100.00,WSW,242,5.0,-999.0,60,-99.99,,,-99.99,,2013-05-28 15:53:00,
2013-05-28 12:03:00,69.0,54.0,-100.00,SSW,206,5.0,-999.0,59,-99.99,,,-99.99,,2013-05-28 16:03:00,
2013-05-28 12:13:00,69.0,54.0,-100.00,SSW,206,5.0,-999.0,59,-99.99,,,-99.99,,2013-05-28 16:13:00,
2013-05-28 12:23:00,69.0,55.0,-100.00,South,183,6.0,-999.0,59,-99.99,,,-99.99,,2013-05-28 16:23:00,
2013-05-28 12:33:00,69.0,55.0,-100.00,South,177,6.0,-999.0,60,-99.99,,,-99.99,,2013-05-28 16:33:00,
2013-05-28 12:42:00,69.0,55.0,-100.00,South,177,6.0,-999.0,60,-99.99,,,-99.99,,2013-05-28 16:42:00,
2013-05-28 12:53:00,71.0,56.0,-100.00,SE,146,5.0,-999.0,57,-99.99,,,-99.99,,2013-05-28 16:53:00,
2013-05-28 13:02:00,72.0,56.0,-100.00,South,181,5.0,-999.0,57,-99.99,,,-99.99,,2013-05-28 17:02:00,
2013-05-28 13:12:00,72.0,56.0,-100.00,South,181,5.0,-999.0,57,-99.99,,,-99.99,,2013-05-28 17:12:00,
2013-05-28 13:22:00,73.0,56.0,-100.00,SSE,167,5.0,-999.0,55,-99.99,,,-99.99,,2013-05-28 17:22:00,
2013-05-28 13:32:00,74.0,57.0,-100.00,SSE,155,7.0,-999.0,55,-99.99,,,-99.99,,2013-05-28 17:32:00,
2013-05-28 13:42:00,74.0,57.0,-100.00,SSE,155,7.0,-999.0,55,-99.99,,,-99.99,,2013-05-28 17:42:00,
2013-05-28 13:52:00,74.0,58.0,-100.00,SE,145,8.0,-999.0,56,-99.99,,,-99.99,,2013-05-28 17:52:00,
2013-05-28 14:01:00,74.0,58.0,-100.00,SE,142,8.0,-999.0,57,-99.99,,,-99.99,,2013-05-28 18:01:00,
2013-05-28 14:11:00,74.0,58.0,-100.00,SE,142,8.0,-999.0,57,-99.99,,,-99.99,,2013-05-28 18:11:00,
2013-05-28 14:22:00,75.0,59.0,-100.00,South,175,7.0,-999.0,57,-99.99,,,-99.99,,2013-05-28 18:22:00,
2013-05-28 14:32:00,76.0,59.0,-100.00,South,187,8.0,-999.0,57,-99.99,,,-99.99,,2013-05-28 18:32:00,
2013-05-28 14:42:00,76.0,59.0,-100.00,South,187,8.0,-999.0,57,-99.99,,,-99.99,,2013-05-28 18:42:00,
2013-05-28 14:52:00,76.0,60.0,-100.00,SSW,199,6.0,-999.0,56,-99.99,,,-99.99,,2013-05-28 18:52:00,
2013-05-28 15:01:00,77.0,61.0,-100.00,South,191,7.0,-999.0,56,-99.99,,,-99.99,,2013-05-28 19:01:00,
2013-05-28 15:11:00,77.0,61.0,-100.00,South,191,7.0,-999.0,56,-99.99,,,-99.99,,2013-05-28 19:11:00,
2013-05-28 15:21:00,79.0,61.0,-100.00,South,170,6.0,-999.0,54,-99.99,,,-99.99,,2013-05-28 19:21:00,
2013-05-28 15:32:00,79.0,61.0,-100.00,SE,142,10.0,-999.0,53,-99.99,,,-99.99,,2013-05-28 19:32:00,
2013-05-28 15:42:00,79.0,61.0,-100.00,SE,142,10.0,-999.0,53,-99.99,,,-99.99,,2013-05-28 19:42:00,
2013-05-28 15:52:00,80.0,61.0,-100.00,SSE,152,8.0,-999.0,51,-99.99,,,-99.99,,2013-05-28 19:52:00,
2013-05-28 16:02:00,80.0,60.0,-100.00,SSW,192,10.0,-999.0,50,-99.99,,,-99.99,,2013-05-28 20:02:00,
2013-05-28 16:11:00,80.0,60.0,-100.00,SSW,192,10.0,-999.0,50,-99.99,,,-99.99,,2013-05-28 20:11:00,
2013-05-28 16:22:00,80.0,60.0,-100.00,South,173,9.0,-999.0,50,-99.99,,,-99.99,,2013-05-28 20:22:00,
2013-05-28 16:32:00,81.0,61.0,-100.00,South,186,8.0,-999.0,50,-99.99,,,-99.99,,2013-05-28 20:32:00,
2013-05-28 16:42:00,81.0,61.0,-100.00,South,186,8.0,-999.0,50,-99.99,,,-99.99,,2013-05-28 20:42:00,
2013-05-28 16:52:00,81.0,61.0,-100.00,South,187,8.0,-999.0,49,-99.99,,,-99.99,,2013-05-28 20:52:00,
2013-05-28 17:02:00,81.0,61.0,-100.00,SSE,155,8.0,-999.0,50,-99.99,,,-99.99,,2013-05-28 21:02:00,
2013-05-28 17:11:00,81.0,61.0,-100.00,SSE,155,8.0,-999.0,50,-99.99,,,-99.99,,2013-05-28 21:11:00,
2013-05-28 17:22:00,81.0,62.0,-100.00,SSE,155,10.0,-999.0,50,-99.99,,,-99.99,,2013-05-28 21:22:00,
2013-05-28 17:33:00,82.0,62.0,-100.00,SSE,154,8.0,-999.0,51,-99.99,,,-99.99,,2013-05-28 21:33:00,
2013-05-28 17:43:00,82.0,62.0,-100.00,SSE,154,8.0,-999.0,51,-99.99,,,-99.99,,2013-05-28 21:43:00,
2013-05-28 17:53:00,80.0,63.0,-100.00,ESE,106,8.0,-999.0,55,-99.99,,,-99.99,,2013-05-28 21:53:00,
2013-05-28 18:02:00,81.0,64.0,-100.00,ESE,107,7.0,-999.0,55,-99.99,,,-99.99,,2013-05-28 22:02:00,
2013-05-28 18:13:00,81.0,64.0,-100.00,ESE,107,7.0,-999.0,55,-99.99,,,-99.99,,2013-05-28 22:13:00,
2013-05-28 18:22:00,80.0,64.0,-100.00,East,95,7.0,-999.0,58,-99.99,,,-99.99,,2013-05-28 22:22:00,
2013-05-28 18:33:00,80.0,64.0,-100.00,East,101,8.0,-999.0,58,-99.99,,,-99.99,,2013-05-28 22:33:00,
2013-05-28 18:42:00,80.0,64.0,-100.00,East,101,8.0,-999.0,58,-99.99,,,-99.99,,2013-05-28 22:42:00,
2013-05-28 18:52:00,79.0,65.0,-100.00,East,88,4.0,-999.0,61,-99.99,,,-99.99,,2013-05-28 22:52:00,
2013-05-28 19:02:00,76.0,66.0,-100.00,NNW,329,5.0,-999.0,70,-99.99,,,-99.99,,2013-05-28 23:02:00,
2013-05-28 19:11:00,76.0,66.0,-100.00,NNW,329,5.0,-999.0,70,-99.99,,,-99.99,,2013-05-28 23:11:00,
2013-05-28 19:22:00,75.0,68.0,-100.00,WNW,285,4.0,-999.0,77,-99.99,,,-99.99,,2013-05-28 23:22:00,
2013-05-28 19:32:00,73.0,69.0,-100.00,SW,234,9.0,-999.0,86,-99.99,,,-99.99,,2013-05-28 23:32:00,
2013-05-28 19:42:00,73.0,69.0,-100.00,SW,234,9.0,-999.0,86,-99.99,,,-99.99,,2013-05-28 23:42:00,
2013-05-28 19:52:00,71.0,63.0,-100.00,SSW,196,11.0,-999.0,76,-99.99,,,-99.99,,2013-05-28 23:52:00,
2013-05-28 20:02:00,70.0,62.0,-100.00,ESE,120,8.0,-999.0,75,-99.99,,,-99.99,,2013-05-29 00:02:00,
2013-05-28 20:11:00,70.0,62.0,-100.00,ESE,120,8.0,-999.0,75,-99.99,,,-99.99,,2013-05-29 00:11:00,
2013-05-28 20:22:00,71.0,62.0,-100.00,ESE,113,6.0,-999.0,72,-99.99,,,-99.99,,2013-05-29 00:22:00,
2013-05-28 20:32:00,71.0,63.0,-100.00,ESE,119,8.0,-999.0,73,-99.99,,,-99.99,,2013-05-29 00:32:00,
2013-05-28 20:42:00,71.0,63.0,-100.00,ESE,119,8.0,-999.0,73,-99.99,,,-99.99,,2013-05-29 00:42:00,
2013-05-28 20:52:00,72.0,64.0,-100.00,SSE,156,4.0,-999.0,76,-99.99,,,-99.99,,2013-05-29 00:52:00,
2013-05-28 21:01:00,72.0,65.0,-100.00,SE,134,4.0,-999.0,78,-99.99,,,-99.99,,2013-05-29 01:01:00,
2013-05-28 21:11:00,72.0,65.0,-100.00,SE,134,4.0,-999.0,78,-99.99,,,-99.99,,2013-05-29 01:11:00,
2013-05-28 21:22:00,71.0,66.0,-100.00,SSE,159,4.0,-999.0,83,-99.99,,,-99.99,,2013-05-29 01:22:00,
2013-05-28 21:32:00,70.0,67.0,-100.00,SSW,198,5.0,-999.0,87,-99.99,,,-99.99,,2013-05-29 01:32:00,
2013-05-28 21:42:00,70.0,67.0,-100.00,SSW,198,5.0,-999.0,87,-99.99,,,-99.99,,2013-05-29 01:42:00,
2013-05-28 21:52:00,70.0,66.0,-100.00,South,179,5.0,-999.0,88,-99.99,,,-99.99,,2013-05-29 01:52:00,
2013-05-28 22:02:00,71.0,66.0,-100.00,South,175,5.0,-999.0,85,-99.99,,,-99.99,,2013-05-29 02:02:00,
2013-05-28 22:12:00,71.0,66.0,-100.00,South,175,5.0,-999.0,85,-99.99,,,-99.99,,2013-05-29 02:12:00,
2013-05-28 22:21:00,71.0,66.0,-100.00,SSE,166,5.0,-999.0,84,-99.99,,,-99.99,,2013-05-29 02:21:00,
2013-05-28 22:32:00,70.0,66.0,-100.00,SSE,166,5.0,-999.0,84,-99.99,,,-99.99,,2013-05-29 02:32:00,
2013-05-28 22:42:00,70.0,66.0,-100.00,SSE,166,5.0,-999.0,84,-99.99,,,-99.99,,2013-05-29 02:42:00,
2013-05-28 22:52:00,71.0,66.0,-100.00,South,174,4.0,-999.0,84,-99.99,,,-99.99,,2013-05-29 02:52:00,
2013-05-28 23:02:00,71.0,66.0,-100.00,SSE,161,4.0,-999.0,84,-99.99,,,-99.99,,2013-05-29 03:02:00,
2013-05-28 23:12:00,71.0,66.0,-100.00,SSE,161,4.0,-999.0,84,-99.99,,,-99.99,,2013-05-29 03:12:00,
2013-05-28 23:22:00,71.0,66.0,-100.00,SSE,153,5.0,-999.0,83,-99.99,,,-99.99,,2013-05-29 03:22:00,
2013-05-28 23:33:00,71.0,66.0,-100.00,South,172,5.0,-999.0,83,-99.99,,,-99.99,,2013-05-29 03:33:00,
2013-05-28 23:43:00,71.0,66.0,-100.00,South,172,5.0,-999.0,83,-99.99,,,-99.99,,2013-05-29 03:43:00,
2013-05-28 23:53:00,71.0,66.0,-100.00,South,181,5.0,-999.0,84,-99.99,,,-99.99,,2013-05-29 03:53:00,